Powrót do katalogu

COSMOS 970 DEB

AktywnyLEO
NORAD 64971·DEBRIS·🇷🇺 Russia

Wystrzelony Dec 21, 1977 z Baikonur Cosmodrome

Loading…

Następne Przeloty (najbliższe 24 godziny)

TLE

ŚwieżeSource: Space-Track

Epoka: Sep 12, 2026, 23:48 UTC

1 64971U 77121CG  26255.99231734  .00000047  00000-0  13932-3 0  9995
2 64971  65.8281 253.2811 0135209 161.1742 230.1106 13.67959011639477

Śledź COSMOS 970 DEB w czasie rzeczywistym z AllMySat

Download on the App Store